Tracking 18984 objects as of 24-Feb-2018
HD Live streaming from Space Station
objects crossing your sky now

FENGYUN 1C DEB

Track FENGYUN 1C DEB now!
10-day predictions


NORAD ID: 36689
Int'l Code: 1999-025DZK
Perigee: 779.1 km
Apogee: 1,295.4 km
Inclination: 98.5 °
Period: 105.8 minutes
Semi major axis: 7408 km
RCS: 0.0112 m2 (small)
Launch date: May 10, 1999
Source: People's Republic of China (PRC)
Launch site: Taiyaun Space Center, China (TSC)

Note: This is SATELLITE DEBRIS
aabbcc
Your satellite tracking list
Your tracking list is empty




NASA's NSSDC Master Catalog

Two Line Element Set (TLE):
1 36689U 99025DZK 18051.02979645 +.00000481 +00000-0 +45328-3 0  9992
2 36689 098.4618 263.3281 0348477 299.5518 057.1310 13.61538772492147
Source of the keplerian elements: AFSPC